Location: Red Rock Canyon
(36.1333°N, 115.4333°W)
Time: 00:56:05
(UTC-07:00)

ISS - Visible Passes

Search period start: 23 October 2014 00:00
Search period end: 02 November 2014 00:00
Orbit: 413 x 416 km, 51.6° (Epoch: 22 October)

Date Brightness Start Highest point End Pass type
(mag) Time Alt. Az. Time Alt. Az. Time Alt. Az.
23 Oct -1.7 19:00:51 10° NNW 19:03:26 20° NNE 19:03:48 20° NE visible
24 Oct -1.8 19:47:49 10° NW 19:49:51 34° NW 19:49:51 34° NW visible
25 Oct -3.0 18:58:43 10° NW 19:01:58 48° NE 19:03:09 32° E visible
26 Oct -1.3 19:46:27 10° WNW 19:49:17 26° SW 19:49:31 26° SW visible
27 Oct -2.5 18:56:53 10° WNW 19:00:08 51° SW 19:03:14 11° SSE visible
29 Oct -0.3 18:55:46 10° W 18:57:56 16° SW 19:00:05 10° S visible
